Weather History for KTOI - November, 2012

Change the Weather History Date:

Wednesday, November 14, 2012

  Actual Average Record
Temperature  
Mean Temperature 46 °F 56 °F  
Max Temperature 58 °F 70 °F 80 °F (2005)
Min Temperature 33 °F 43 °F 23 °F (2013)
Degree Days  
Heating Degree Days 19 9  
Month to date heating degree days 140 108  
Since 1 July heating degree days 231 206  
Moisture  
Dew Point 43 °F    
Average Humidity 82    
Maximum Humidity 96    
Minimum Humidity 67    
Precipitation  
Precipitation T in 0.16 in 0.67 in (2006)
Month to date precipitation 0.93 1.80  
Year to date precipitation 50.96 46.94  
Snow  
Snow 0.00 in - - ()
Month to date snowfall 0.0  
Since 1 July snowfall 0.0  
Since 1 September snowfall 0.0  
Snow Depth 0.00 in    
Sea Level Pressure  
Sea Level Pressure 30.26 in    
Wind  
Wind Speed 4 mph (ENE)    
Max Wind Speed 12 mph    
Max Gust Speed 18 mph    
Visibility 10 miles    
Events Rain    
T = Trace of Precipitation, MM = Missing Value Source: NWS Daily Summary

Daily Weather History Graph

Daily Weather History Graph

Search for Another Location

Airport or City:

Trip Planner

Search our weather history database for the weather conditions in past years. The results will help you decide how hot, cold, wet, or windy it might be!

Date:

Astronomy

Nov. 14, 2012 Rise Set
Actual Time 6:12 AM CST 4:44 PM CST
Civil Twilight 5:46 AM CST 5:10 PM CST
Nautical Twilight 5:16 AM CST 5:40 PM CST
Astronomical Twilight 4:47 AM CST 6:09 PM CST
Moon 6:57 AM CST (11/14) 5:36 PM CST (11/14)
Length of Visible Light 11h 24m
Length of Day
10h 32m
New Moon, 1% of the Moon is Illuminated
Nov 14
New Moon
Nov 20
First Quarter
Nov 28
Full
Dec 6
Last Quarter
Dec 13
New

Hourly Weather History & Observations

Time (CST) Temp. Windchill Dew Point Humidity Pressure Visibility Wind Dir Wind Speed Gust Speed Precip Events Conditions
12:53 AM 37.0 °F - 33.1 °F 86% 30.25 in 10.0 mi Calm Calm - N/A   Clear
1:53 AM 34.0 °F - 32.0 °F 92% 30.25 in 10.0 mi Calm Calm - N/A   Clear
2:53 AM 36.0 °F - 32.0 °F 86% 30.25 in 10.0 mi Calm Calm - N/A   Clear
3:53 AM 34.0 °F - 32.0 °F 92% 30.25 in 10.0 mi Calm Calm - N/A   Clear
4:32 AM 33.8 °F 30.8 °F 32.0 °F 93% 30.25 in 10.0 mi NE 3.5 mph - N/A   Scattered Clouds
4:43 AM 35.6 °F - 33.8 °F 93% 30.25 in 10.0 mi Calm Calm - N/A   Mostly Cloudy
4:53 AM 36.0 °F - 34.0 °F 93% 30.26 in 10.0 mi Calm Calm - N/A   Overcast
5:43 AM 39.2 °F 37.0 °F 35.6 °F 87% 30.26 in 10.0 mi NE 3.5 mph - N/A   Overcast
5:53 AM 39.9 °F 37.8 °F 35.1 °F 83% 30.26 in 10.0 mi ENE 3.5 mph - N/A   Overcast
6:53 AM 44.1 °F 42.5 °F 39.0 °F 82% 30.28 in 10.0 mi NE 3.5 mph - N/A   Overcast
7:53 AM 48.0 °F - 43.0 °F 83% 30.29 in 10.0 mi East 5.8 mph - N/A   Overcast
8:07 AM 48.2 °F - 44.6 °F 87% 30.29 in 10.0 mi East 4.6 mph - N/A   Overcast
8:18 AM 50.0 °F - 44.6 °F 82% 30.29 in 10.0 mi East 6.9 mph - N/A   Overcast
8:53 AM 52.0 °F - 45.0 °F 77% 30.29 in 10.0 mi East 9.2 mph - N/A   Overcast
9:53 AM 55.0 °F - 46.0 °F 72% 30.28 in 10.0 mi East 6.9 mph - N/A   Overcast
10:12 AM 55.4 °F - 46.4 °F 72% 30.28 in 10.0 mi ENE 5.8 mph - N/A   Overcast
10:53 AM 55.9 °F - 46.9 °F 72% 30.28 in 10.0 mi NE 6.9 mph - N/A   Overcast
11:53 AM 57.0 °F - 46.9 °F 69% 30.26 in 10.0 mi Variable 5.8 mph - N/A   Overcast
12:53 PM 55.9 °F - 46.9 °F 72% 30.24 in 10.0 mi NE 6.9 mph - N/A   Overcast
1:53 PM 55.0 °F - 46.9 °F 74% 30.24 in 10.0 mi East 3.5 mph - N/A   Overcast
2:53 PM 54.0 °F - 48.0 °F 80% 30.24 in 10.0 mi ENE 4.6 mph - N/A   Overcast
3:12 PM 53.6 °F - 48.2 °F 82% 30.24 in 10.0 mi NE 4.6 mph - N/A   Overcast
3:49 PM 53.6 °F - 48.2 °F 82% 30.24 in 10.0 mi NE 4.6 mph - N/A   Overcast
3:53 PM 54.0 °F - 48.0 °F 80% 30.24 in 10.0 mi NE 4.6 mph - N/A   Overcast
4:53 PM 53.1 °F - 46.9 °F 80% 30.25 in 10.0 mi NNE 4.6 mph - N/A   Overcast
5:04 PM 53.6 °F - 46.4 °F 77% 30.25 in 10.0 mi NNE 4.6 mph - N/A   Overcast
5:53 PM 53.1 °F - 46.9 °F 80% 30.26 in 10.0 mi NNE 5.8 mph - 0.00 in Rain Light Rain
6:53 PM 52.0 °F - 46.0 °F 80% 30.27 in 10.0 mi NE 3.5 mph - 0.00 in   Overcast
7:35 PM 51.8 °F - 46.4 °F 82% 30.27 in 10.0 mi NE 6.9 mph - N/A   Overcast
7:53 PM 51.1 °F - 46.0 °F 83% 30.27 in 10.0 mi ENE 6.9 mph - N/A   Overcast
8:53 PM 50.0 °F - 45.0 °F 83% 30.27 in 10.0 mi ENE 5.8 mph - N/A   Overcast
9:03 PM 50.0 °F - 44.6 °F 82% 30.26 in 10.0 mi ENE 6.9 mph - N/A   Overcast
9:13 PM 50.0 °F - 44.6 °F 82% 30.26 in 10.0 mi ENE 6.9 mph - N/A   Overcast
9:53 PM 50.0 °F - 45.0 °F 83% 30.26 in 10.0 mi ENE 5.8 mph - N/A   Overcast
10:53 PM 48.9 °F - 45.0 °F 86% 30.25 in 10.0 mi ENE 4.6 mph - N/A   Overcast
11:53 PM 48.9 °F - 44.1 °F 83% 30.25 in 10.0 mi ENE 4.6 mph - N/A   Overcast